STARLINK-2055, 47358

Orbit data source: Space-Track

STARLINK-2055, 47358 is a payload satellite owned by SpaceX/Seattle (US) in LEO that was launched on Wed, 20 Jan 2021 UTC via an FALCON 9 launch vehicle from the Air Force Eastern Test Range (AFETR). Payload-class satellites include a variety of spacecraft equipped with specific instruments for various scientific and technological missions. These include communications satellites like Starlink; space stations such as the ISS; scientific satellites like the Hubble; Earth observation satellites from companies like Planet Labs, Umbra, and HawkEye 360; GPS; miniature CubeSats for education and research; and military/defense satellites.

Loading next visibility...
Identifier
47358, 2021-005K
Orbit
LEO
Country
Flag of USUS
Related business
Manufacturer
SpaceX/Seattle
Mission
Operational Commercial Communications
Bus & Motor
STARLINK, Unknown motor
Mass
260 kg wet, ~248 kg dry
Launch date (UTC)
2021-01-20 (5 years ago)
Launch vehicle
FALCON 9
Launch site
Air Force Eastern Test Range (AFETR)
Object type
Payload
Rocket body
Debris
Shape & HBR
Box + 1 Pan, 10.1 m
Radar Cross Section
13.562 m², Large (>1 m²)

Expand to show TLE details & history
Last TLE update: 3 days ago

TLE from 3 days ago
0 STARLINK-2055
1 47358U 21005K   26170.71611305  .00010797  00000-0  36390-3 0  9993
2 47358  53.1596 282.7537 0000881 356.6870   3.4125 15.31276519299009
Epoch: 2026-06-19T17:11Z
TLE epoch observation values (Epoch: 2026-06-19T17:11:12.167Z)
Latitude
-0.00004°
Longitude
117.01187°
Altitude
472.3 km
Speed
7.631 km/s
True Right ascension
18h 51m 00s
True Declination
0° 00' 00"
Sunlit
Object was in full shadow at epoch
Visualization orbit readout
Latitude
Unknown
Longitude
Unknown
Altitude
Unknown
Speed
Unknown
Apparent Right ascension
Unknown
Apparent Declination
Unknown
Sunlit
N/A
Visualization observer readout
Local Sidereal Time
21:26:08
Azimuth
Unknown
Elevation
Unknown
Doppler factor
Unknown
Orbital elements
Apogee altitude
472.863 km
Perigee altitude
471.656 km
Semi-major axis
6,850.396 km
Eccentricity
0.00009
Inclination
53.1596°
RAAN
282.7537°
Arg. of periapsis
356.687°
True anomaly
3.4131°
Mean anomaly
3.4125°
Eccentric anomaly
3.4128°
Mean motion
3.82798 °/min
Orbital period
94.04 mins
BSTAR
0.0003639
Loading maneuver chart data...
Computing Atmospheric mass density...
Loading historical data...
Loading historical data...
Loading historical data...
Loading historical data...
Loading historical data...
Loading historical data...
Loading historical data...

Documentation

Showing up to 5 results
|